EW6178 Hyannis MA US current weather conditions

sailwx.info

Wind from 258 at 0 knots gusting 12

Air temperature 9.4° C
Dewpoint 4.2° C

Last reported at 2020-Oct-25 20:02 UTC.
Time now 2020-Oct-26 04:41 UTC

Location: N 41°38' W 070°17'.
View on Google Maps.

See reports from other nearby stations

  
Tides and Currents Weather Stations Pressure Air Temp Water Temp Dewpoint Dewpoint Depression Visibility Wind Speed Wind Dir Waves Ship Positions
date/time (UTC)wind fromknots sea level pressurealtimeterstation pressurevisibilityair tempwater tempwave heightnotes
2020-Oct-25 20:02 258 0 gusting 12 9.4
2020-Oct-25 18:02
2020-Oct-25 17:03 254 4 10.6
2020-Oct-25 16:02
2020-Oct-25 15:01 289 1 11.1
2020-Oct-25 14:00
2020-Oct-25 13:01
2020-Oct-25 12:03
2020-Oct-25 11:02 10.0
2020-Oct-25 09:03 10.0
2020-Oct-25 08:01 239 2 10.0
2020-Oct-25 07:55 239 4 10.6
2020-Oct-25 07:40 237 3 10.6
2020-Oct-25 07:32 231 2 10.0
2020-Oct-25 07:25 155 3 10.0
2020-Oct-25 07:16 224 3 9.4
2020-Oct-25 07:10 193 3 10.0
2020-Oct-25 07:01 251 2 9.4
2020-Oct-25 06:55 118 1 10.0
2020-Oct-25 06:46 224 1 9.4
2020-Oct-25 06:40 250 3 10.0
2020-Oct-25 06:30 226 2 9.4
2020-Oct-25 06:25 222 3 10.0
2020-Oct-25 06:17 151 2 9.4
2020-Oct-25 06:10 228 2 10.0
2020-Oct-25 06:02 157 1 10.0
2020-Oct-25 05:55 218 3 10.0
2020-Oct-25 05:40 171 5 10.0
2020-Oct-25 05:31 193 4 10.0
2020-Oct-25 05:25 223 4 10.0
2020-Oct-25 05:10 220 4 gusting 15 10.0
2020-Oct-25 04:55 158 5 gusting 13 10.6
2020-Oct-25 04:46 281 2 gusting 22 10.0
2020-Oct-25 04:40 217 1 gusting 13 10.6
2020-Oct-25 04:25 214 3 gusting 15 11.1
2020-Oct-25 04:10 189 5 gusting 17 11.1
2020-Oct-25 04:01 196 6 gusting 16 11.1
2020-Oct-25 03:55 210 6 gusting 16 11.7
2020-Oct-25 03:46 126 4 gusting 16 11.7
2020-Oct-25 03:40 266 6 gusting 17 12.2
2020-Oct-25 03:31 269 6 gusting 19 12.2
2020-Oct-25 03:25 218 7 gusting 15 12.2
2020-Oct-25 03:16 170 7 gusting 18 12.2
2020-Oct-25 03:10 213 6 gusting 18 12.8
2020-Oct-25 02:55 116 3 gusting 14 13.3
2020-Oct-25 02:47 135 6 gusting 17 13.3
2020-Oct-25 02:40 161 6 gusting 17 13.9
2020-Oct-25 02:30 160 4 gusting 12 13.9
2020-Oct-25 02:25 265 3 gusting 13 13.9
2020-Oct-25 02:16 055 4 gusting 13 13.9
2020-Oct-25 02:10 191 5 gusting 14 14.4
2020-Oct-25 01:55 209 4 gusting 13 14.4
2020-Oct-25 01:47 091 3 gusting 19 14.4
2020-Oct-25 01:40 229 5 gusting 19 14.4
2020-Oct-25 01:31 218 2 gusting 16 14.4
2020-Oct-25 01:25 288 5 gusting 16 15.0
2020-Oct-25 01:17 191 5 gusting 13 15.0
2020-Oct-25 01:10 192 3 gusting 11 15.6
2020-Oct-25 00:55 114 3 gusting 13 15.6
2020-Oct-25 00:40 171 4 gusting 11 16.1
2020-Oct-25 00:32 348 16.7
2020-Oct-25 00:25 348 1 gusting 6 16.7
2020-Oct-25 00:10 348 16.7
2020-Oct-25 00:01 348 16.7
2020-Oct-24 23:55 348 0 gusting 4 16.7
2020-Oct-24 23:40 348 1 gusting 6 16.7
2020-Oct-24 23:25 351 0 gusting 6 17.2
2020-Oct-24 23:10 351 0 gusting 6 17.2
2020-Oct-24 23:01 351 16.7
2020-Oct-24 22:55 348 0 gusting 6 17.2
2020-Oct-24 22:47 355 1 gusting 6 16.7
2020-Oct-24 22:40 351 1 gusting 7 17.2
2020-Oct-24 22:31 351 1 gusting 8 16.7
2020-Oct-24 22:25 346 3 gusting 8 16.7
2020-Oct-24 22:18 353 1 gusting 7 16.7
2020-Oct-24 22:10 353 0 gusting 7 16.7
2020-Oct-24 22:01 354 0 gusting 8 16.7
2020-Oct-24 21:55 351 1 gusting 9 16.7
2020-Oct-24 21:40 351 2 gusting 9 17.2
2020-Oct-24 21:32 053 3 gusting 10 17.2
2020-Oct-24 21:25 349 3 gusting 9 17.2
2020-Oct-24 21:10 357 2 gusting 8 17.2
2020-Oct-24 21:01 349 1 gusting 6 17.2
2020-Oct-24 20:55 350 1 gusting 6 17.2
2020-Oct-24 20:40 353 3 gusting 9 17.2
2020-Oct-24 20:25 074 3 gusting 8 17.2
2020-Oct-24 20:10 352 3 gusting 12 17.2
2020-Oct-24 20:02 346 3 gusting 9 17.8
2020-Oct-24 19:55 328 2 gusting 10 18.3
2020-Oct-24 19:40 353 4 gusting 12 17.8
2020-Oct-24 19:31 352 2 gusting 8 17.2
2020-Oct-24 19:25 045 3 gusting 7 17.8
2020-Oct-24 19:16 006 2 gusting 9 17.2
2020-Oct-24 19:10 353 2 gusting 8 17.2
2020-Oct-24 19:01 355 2 gusting 9 16.7
2020-Oct-24 18:55 326 4 gusting 9 17.2
2020-Oct-24 18:47 355 4 gusting 12 16.7
2020-Oct-24 18:40 354 3 gusting 6 17.2
2020-Oct-24 18:30 345 3 gusting 11 16.7
2020-Oct-24 18:25 351 3 gusting 11 17.2
2020-Oct-24 18:17 008 3 gusting 10 16.7
2020-Oct-24 18:10 346 4 gusting 10 17.2
2020-Oct-24 17:55 349 3 gusting 10 17.8
2020-Oct-24 17:40 350 4 gusting 13 17.8
2020-Oct-24 17:31 353 3 gusting 9 17.8
2020-Oct-24 17:25 350 4 gusting 8 18.3
2020-Oct-24 17:17 346 1 gusting 6 17.8
2020-Oct-24 17:10 349 2 gusting 7 18.3
2020-Oct-24 16:55 313 3 gusting 7 18.3
2020-Oct-24 16:48 329 3 gusting 7 18.3
2020-Oct-24 16:40 345 3 gusting 8 18.9
2020-Oct-24 16:31 328 1 gusting 7 18.9
2020-Oct-24 16:25 328 2 gusting 5 19.4
2020-Oct-24 16:17 338 18.9
2020-Oct-24 16:10 335 1 gusting 5 19.4
2020-Oct-24 16:02 318 0 gusting 6 18.9
2020-Oct-24 15:55 352 2 gusting 6 18.9
2020-Oct-24 15:47 345 1 gusting 6 18.9
2020-Oct-24 15:40 342 1 gusting 6 18.9
2020-Oct-24 15:31 329 18.9
2020-Oct-24 15:26 332 0 gusting 4 19.4
2020-Oct-24 15:11 297 1 gusting 5 19.4
2020-Oct-24 15:01 294 0 gusting 5 18.9
2020-Oct-24 14:55 289 0 gusting 5 18.9
2020-Oct-24 14:40 291 0 gusting 5 18.3
2020-Oct-24 14:32 337 18.3
2020-Oct-24 14:25 339 1 gusting 3 18.9
2020-Oct-24 14:16 008 18.3
2020-Oct-24 14:10 008 0 gusting 1 18.3
2020-Oct-24 14:01 008 17.8
2020-Oct-24 13:55 008 17.8
2020-Oct-24 13:46 007 17.2
2020-Oct-24 13:31 008 17.2
2020-Oct-24 13:25 008 17.2
2020-Oct-24 13:10 008 17.2
2020-Oct-24 12:55 008 16.1
2020-Oct-24 12:40 008 15.0
2020-Oct-24 12:31 008 14.4
2020-Oct-24 12:25 008 14.4
2020-Oct-24 12:10 14.4
2020-Oct-24 12:01 13.9
2020-Oct-24 11:40 14.4
2020-Oct-24 11:31 13.9
2020-Oct-24 11:25 14.4
2020-Oct-24 11:15 13.9
2020-Oct-24 11:11 14.4
2020-Oct-24 11:02 13.9
2020-Oct-24 10:55 14.4
2020-Oct-24 10:46 13.9
2020-Oct-24 10:41 14.4
2020-Oct-24 10:31 13.9
2020-Oct-24 10:25 14.4
2020-Oct-24 10:16 13.9
2020-Oct-24 10:10 14.4
2020-Oct-24 10:00 13.9
2020-Oct-24 09:56 14.4
2020-Oct-24 09:40 14.4
2020-Oct-24 09:25 14.4
2020-Oct-24 09:17 13.9
2020-Oct-24 09:10 14.4
2020-Oct-24 09:01 13.9
2020-Oct-24 08:55 14.4
2020-Oct-24 08:41 14.4
2020-Oct-24 08:31 13.9
2020-Oct-24 08:25 14.4
2020-Oct-24 08:16 278 13.9
2020-Oct-24 08:10 278 14.4
2020-Oct-24 08:01 281 14.4
2020-Oct-24 07:55 281 14.4
2020-Oct-24 07:47 281 14.4
2020-Oct-24 07:40 281 14.4
2020-Oct-24 07:31 282 14.4
2020-Oct-24 07:25 281 14.4
2020-Oct-24 07:10 281 14.4
2020-Oct-24 07:01 281 14.4
2020-Oct-24 06:55 282 14.4
2020-Oct-24 06:41 281 14.4
2020-Oct-24 06:31 281 14.4
2020-Oct-24 06:10 281 15.0
2020-Oct-24 06:02 281 14.4
2020-Oct-24 05:55 281 15.0
2020-Oct-24 05:40 281 15.0
2020-Oct-24 05:31 281 15.0
2020-Oct-24 05:25 281 15.0
2020-Oct-24 05:10 281 15.0
2020-Oct-24 05:02 282 15.0
2020-Oct-24 04:55 281 15.0
2020-Oct-24 04:40 298 1 gusting 6 15.0
2020-Oct-24 04:25 299 15.0
2020-Oct-24 04:11 276 1 gusting 6 15.0
2020-Oct-24 04:01 282 1 gusting 5 14.4